Location: Elaine Barite Prospect
(34.1431°N, 106.7922°W)
Time: 05:36:05
(UTC+00:00)

Meteor 2-20 Rocket - Pass Details

Date: 13 December 2025
Orbit: 871 x 1024 km, 82.5° (Epoch: 12 January)

Event Time Altitude Azimuth Distance (km) Brightness Sun altitude
Rises 12:39:44 0° 351° (N) 3,473 7.1 -17.0°
Reaches altitude 10° 12:42:11 10° 349° (N) 2,525 6.4 -16.6°
Maximum altitude 12:47:52 75° 266° (W) 905 4.2 -15.4°
Drops below altitude 10° 12:53:33 10° 182° (S) 2,529 6.9 -14.3°
Sets 12:56:00 0° 180° (S) 3,477 7.7 -13.8°
